This demonstration page uses our WeatherBlox Daily Observations layout. Learn more.

Left ArrowRight Arrow

44.31136, -96.79839

Hourly Observations for September 30, 2021

Temp ( °F °C ) Dew Point ( °F °C ) Humidity (%) Winds ( mph kmh ) Pressure ( in mb ) Visibility ( mi km ) Precip ( " mm )
12:56 am 00:56 Mostly Clear 61 16.1 59 15 93 93 Calm 30.04 1017 8 13 0.00 0.00
1:56 am 01:56 Cloudy 62 16.7 59 15 90 90 NE 3 6 30.04 1017 9 14 0.00 0.00
2:56 am 02:56 Cloudy 61 16.1 59 15 93 93 Calm 30.05 1018 9 14 0.00 0.00
3:56 am 03:56 Mostly Clear 62 16.7 59 15 90 90 Calm 30.05 1018 10 16 0.00 0.00
4:56 am 04:56 Cloudy 59 15 57 13.9 93 93 Calm 30.06 1018 8 13 0.00 0.00
5:56 am 05:56 Partly Cloudy 60 15.6 58 14.4 93 93 Calm 30.06 1018 9 14 0.00 0.00
6:56 am 06:56 Cloudy 60 15.6 58 14.4 93 93 Calm 30.07 1018 8 13 0.00 0.00
7:56 am 07:56 Cloudy with Mist and Fog 60 15.6 58 14.4 93 93 NNE 6 9 30.09 1019 6 10 0.00 0.00
8:56 am 08:56 Cloudy 64 17.8 60 15.6 87 87 SSE 12 19 30.11 1020 8 13 0.00 0.00
9:06 am 09:06 Cloudy 64 18 61 16 88 88 S 12 19 30.05 1018 10 16 0.00 0.00
9:29 am 09:29 Mostly Cloudy 64 18 61 16 88 88 S 10 17 30.05 1018 10 16 0.00 0.00
9:56 am 09:56 Partly Cloudy 65 18.3 61 16.1 87 87 SSW 7 11 30.11 1020 10 16 0.00 0.00
10:56 am 10:56 Mostly Cloudy 68 20 62 16.7 81 81 VRB 5 7 30.11 1020 10 16 0.00 0.00
11:56 am 11:56 Mostly Cloudy 69 20.6 62 16.7 78 78 ESE 5 7 30.12 1020 10 16 0.00 0.00
12:56 pm 12:56 Cloudy 69 20.6 62 16.7 78 78 Calm 30.12 1020 10 16 0.00 0.00
1:20 pm 13:20 Cloudy with Light Rain 70 21 63 17 78 78 S 3 6 30.04 1017 10 16 0.00 0.00
1:56 pm 13:56 Cloudy with Light Rain 67 19.4 63 17.2 87 87 Calm 30.13 1020 6 10 0.02 0.51
2:56 pm 14:56 Cloudy 69 20.6 64 17.8 84 84 ENE 3 6 30.11 1020 9 14 0.00 0.00
3:20 pm 15:20 Cloudy with Haze 70 21 63 17 78 78 Calm 30.02 1017 2 3 0.00 0.00
3:24 pm 15:24 Cloudy with Haze 70 21 63 17 78 78 Calm 30.02 1017 3 5 0.00 0.00
3:56 pm 15:56 Cloudy 71 21.7 62 16.7 73 73 Calm 30.10 1019 10 16 0.00 0.00
4:56 pm 16:56 Mostly Sunny 71 21.7 62 16.7 73 73 Calm 30.11 1020 10 16 0.00 0.00
5:17 pm 17:17 Cloudy 70 21 63 17 78 78 Calm 30.03 1017 10 16 0.00 0.00
5:36 pm 17:36 Cloudy 70 21 64 18 83 83 N 3 6 30.02 1017 10 16 0.00 0.00
5:56 pm 17:56 Cloudy 70 21.1 64 17.8 82 82 ESE 3 6 30.11 1020 10 16 0.00 0.00
6:43 pm 18:43 Mostly Cloudy 70 21 63 17 78 78 SE 6 9 30.04 1017 10 16 0.00 0.00
6:56 pm 18:56 Cloudy 69 20.6 63 17.2 81 81 SE 3 6 30.12 1020 10 16 0.00 0.00
7:08 pm 19:08 Cloudy 68 20 63 17 83 83 SE 3 6 30.05 1018 10 16 0.00 0.00
7:56 pm 19:56 Mostly Cloudy 69 20.6 62 16.7 78 78 ESE 3 6 30.13 1020 10 16 0.00 0.00
8:56 pm 20:56 Mostly Cloudy 67 19.4 62 16.7 84 84 Calm 30.13 1020 10 16 0.00 0.00
9:56 pm 21:56 Cloudy with Light Rain 64 17.8 62 16.7 93 93 Calm 30.12 1020 10 16 0.00 0.00
10:56 pm 22:56 Cloudy 64 17.8 62 16.7 93 93 SE 5 7 30.13 1020 10 16 0.00 0.00
11:56 pm 23:56 Cloudy 63 17.2 62 16.7 97 97 Calm 30.11 1020 7 11 0.00 0.00

Powered by AerisWeather